sat.trackr.live / text

‹ back to catalog

STARLINK-35626

NORAD 66233 · 2025-244AD

PAYLOAD ACTIVE UNKNOWN

§ Identity

Operator
Country
US
Launch date
2025-10-28
Launch site
AFWTR
Launch vehicle
Mass (kg)
RCS (m²)

Purposes: comms

External: N2YO · Heavens-Above · Gunter

§ Orbital elements

Epoch: 2026-05-25T05:29:05.892288Z

Period
94.10 min
Inclination
53.1590°
Eccentricity
0.0001039
Mean motion
15.30212806 rev/d
Perigee alt
474.5 km
Apogee alt
475.9 km
Semi-major
6,853.3 km
B*
5.5179e-4
RAAN
234.6960°
Arg perigee
92.4444°
Mean anomaly
267.6676°
Rev number
3,337

§ Raw data

STARLINK-356261 66233U 25244AD  26145.22854042  .00016025  00000+0  55179-3 0  99952 66233  53.1590 234.6960 0001039  92.4444 267.6676 15.30212806 33379

JSON: /api/v1/satellites/66233 · /tle

For live sub-satellite position, see the globe view (requires WebGL).

§ Visibility from observer

Set your observer location to see the next 7 days of passes ≥ 10°. The values pass through the URL so the page stays shareable.

No JS? Fill the form by hand. The geolocation button needs JavaScript.